Time,TemperatureF,DewpointF,PressureIn,WindDirection,WindDirectionDegrees,WindSpeedMPH,WindSpeedGustMPH,Humidity,HourlyPrecipIn,Conditions,Clouds,dailyrainin,SoftwareType,DateUTC
2014-01-02 00:02:00,-5.0,-16.0,-100.00,NNW,335,1.0,2.0,61,-99.99,,,-99.99,,2014-01-02 06:02:00,
2014-01-02 01:42:00,-14.0,-21.0,-100.00,North,10,0.0,2.0,68,-99.99,,,-99.99,,2014-01-02 07:42:00,
2014-01-02 01:52:00,-14.0,-21.0,-100.00,North,10,0.0,2.0,68,-99.99,,,-99.99,,2014-01-02 07:52:00,
2014-01-02 02:02:00,-14.0,-21.0,-100.00,North,10,0.0,2.0,68,-99.99,,,-99.99,,2014-01-02 08:02:00,
2014-01-02 02:42:00,-16.0,-23.0,-100.00,NNW,335,0.0,2.0,72,-99.99,,,-99.99,,2014-01-02 08:42:00,
2014-01-02 02:53:00,-16.0,-23.0,-100.00,NNW,335,0.0,2.0,72,-99.99,,,-99.99,,2014-01-02 08:53:00,
2014-01-02 03:02:00,-16.0,-23.0,-100.00,NNW,335,0.0,2.0,72,-99.99,,,-99.99,,2014-01-02 09:02:00,
2014-01-02 03:43:00,-19.0,-25.0,-100.00,NNW,345,0.0,1.0,74,-99.99,,,-99.99,,2014-01-02 09:43:00,
2014-01-02 03:53:00,-19.0,-25.0,-100.00,NNW,345,0.0,1.0,74,-99.99,,,-99.99,,2014-01-02 09:53:00,
2014-01-02 04:03:00,-19.0,-25.0,-100.00,NNW,345,0.0,1.0,74,-99.99,,,-99.99,,2014-01-02 10:03:00,
2014-01-02 04:43:00,-21.0,-27.0,-100.00,NNW,335,0.0,0.0,74,-99.99,,,-99.99,,2014-01-02 10:43:00,
2014-01-02 04:53:00,-21.0,-27.0,-100.00,NNW,335,0.0,0.0,74,-99.99,,,-99.99,,2014-01-02 10:53:00,
2014-01-02 05:03:00,-21.0,-27.0,-100.00,NNW,335,0.0,0.0,74,-99.99,,,-99.99,,2014-01-02 11:03:00,
2014-01-02 05:42:00,-22.0,-27.0,-100.00,NW,305,0.0,1.0,75,-99.99,,,-99.99,,2014-01-02 11:42:00,
2014-01-02 05:53:00,-22.0,-27.0,-100.00,NW,305,0.0,1.0,75,-99.99,,,-99.99,,2014-01-02 11:53:00,
2014-01-02 06:02:00,-22.0,-27.0,-100.00,NW,305,0.0,1.0,75,-99.99,,,-99.99,,2014-01-02 12:02:00,
2014-01-02 07:42:00,-23.0,-29.0,-100.00,NW,320,0.0,2.0,75,-99.99,,,-99.99,,2014-01-02 13:42:00,
2014-01-02 07:52:00,-23.0,-29.0,-100.00,NW,320,0.0,2.0,75,-99.99,,,-99.99,,2014-01-02 13:52:00,
2014-01-02 08:02:00,-23.0,-29.0,-100.00,NW,320,0.0,2.0,75,-99.99,,,-99.99,,2014-01-02 14:02:00,
2014-01-02 08:42:00,-24.0,-29.0,-100.00,NW,325,0.0,0.0,75,-99.99,,,-99.99,,2014-01-02 14:42:00,
2014-01-02 08:52:00,-24.0,-29.0,-100.00,NW,325,0.0,0.0,75,-99.99,,,-99.99,,2014-01-02 14:52:00,
2014-01-02 09:02:00,-24.0,-29.0,-100.00,NW,325,0.0,0.0,75,-99.99,,,-99.99,,2014-01-02 15:02:00,
2014-01-02 09:44:00,-18.0,-23.0,-100.00,North,10,1.0,2.0,76,-99.99,,,-99.99,,2014-01-02 15:44:00,
2014-01-02 09:53:00,-18.0,-23.0,-100.00,North,10,1.0,2.0,76,-99.99,,,-99.99,,2014-01-02 15:53:00,
2014-01-02 10:03:00,-18.0,-23.0,-100.00,North,10,1.0,2.0,76,-99.99,,,-99.99,,2014-01-02 16:03:00,
2014-01-02 10:43:00,-9.0,-17.0,-100.00,NNW,340,2.0,5.0,69,-99.99,,,-99.99,,2014-01-02 16:43:00,
2014-01-02 10:53:00,-9.0,-17.0,-100.00,NNW,340,2.0,5.0,69,-99.99,,,-99.99,,2014-01-02 16:53:00,
2014-01-02 11:02:00,-9.0,-17.0,-100.00,NNW,340,2.0,5.0,69,-99.99,,,-99.99,,2014-01-02 17:02:00,
2014-01-02 11:10:00,-5.0,-18.0,-100.00,West,280,4.0,6.0,53,-99.99,,,-99.99,,2014-01-02 17:10:00,
2014-01-02 11:43:00,-5.0,-18.0,-100.00,West,280,4.0,6.0,53,-99.99,,,-99.99,,2014-01-02 17:43:00,
2014-01-02 11:52:00,-5.0,-18.0,-100.00,West,280,4.0,6.0,53,-99.99,,,-99.99,,2014-01-02 17:52:00,
2014-01-02 12:02:00,-5.0,-18.0,-100.00,West,280,4.0,6.0,53,-99.99,,,-99.99,,2014-01-02 18:02:00,
2014-01-02 12:43:00,-2.0,-18.0,-100.00,West,265,0.0,0.0,44,-99.99,,,-99.99,,2014-01-02 18:43:00,
2014-01-02 12:53:00,-2.0,-18.0,-100.00,West,265,0.0,0.0,44,-99.99,,,-99.99,,2014-01-02 18:53:00,
2014-01-02 13:01:00,-2.0,-18.0,-100.00,West,265,0.0,0.0,44,-99.99,,,-99.99,,2014-01-02 19:01:00,
2014-01-02 13:10:00,0.0,-20.0,-100.00,WSW,245,0.0,0.0,37,-99.99,,,-99.99,,2014-01-02 19:10:00,
2014-01-02 13:42:00,0.0,-20.0,-100.00,WSW,245,0.0,0.0,37,-99.99,,,-99.99,,2014-01-02 19:42:00,
2014-01-02 13:52:00,0.0,-20.0,-100.00,WSW,245,0.0,0.0,37,-99.99,,,-99.99,,2014-01-02 19:52:00,
2014-01-02 14:02:00,0.0,-20.0,-100.00,WSW,245,0.0,0.0,37,-99.99,,,-99.99,,2014-01-02 20:02:00,
2014-01-02 14:42:00,1.0,-22.0,-100.00,NW,310,0.0,0.0,32,-99.99,,,-99.99,,2014-01-02 20:42:00,
2014-01-02 14:52:00,1.0,-22.0,-100.00,NW,310,0.0,0.0,32,-99.99,,,-99.99,,2014-01-02 20:52:00,
2014-01-02 15:02:00,1.0,-22.0,-100.00,NW,310,0.0,0.0,32,-99.99,,,-99.99,,2014-01-02 21:02:00,
2014-01-02 15:44:00,0.0,-22.0,-100.00,West,260,0.0,0.0,33,-99.99,,,-99.99,,2014-01-02 21:44:00,
2014-01-02 15:53:00,0.0,-22.0,-100.00,West,260,0.0,0.0,33,-99.99,,,-99.99,,2014-01-02 21:53:00,
2014-01-02 16:03:00,0.0,-22.0,-100.00,West,260,0.0,0.0,33,-99.99,,,-99.99,,2014-01-02 22:03:00,
2014-01-02 16:10:00,-1.0,-23.0,-100.00,West,260,4.0,6.0,33,-99.99,,,-99.99,,2014-01-02 22:10:00,
2014-01-02 16:43:00,-1.0,-23.0,-100.00,West,260,4.0,6.0,33,-99.99,,,-99.99,,2014-01-02 22:43:00,
2014-01-02 16:53:00,-1.0,-23.0,-100.00,West,260,4.0,6.0,33,-99.99,,,-99.99,,2014-01-02 22:53:00,
2014-01-02 17:02:00,-1.0,-23.0,-100.00,West,260,4.0,6.0,33,-99.99,,,-99.99,,2014-01-02 23:02:00,
2014-01-02 17:43:00,-7.0,-25.0,-100.00,WSW,255,0.0,0.0,40,-99.99,,,-99.99,,2014-01-02 23:43:00,
2014-01-02 17:53:00,-7.0,-25.0,-100.00,WSW,255,0.0,0.0,40,-99.99,,,-99.99,,2014-01-02 23:53:00,
2014-01-02 18:02:00,-7.0,-25.0,-100.00,WSW,255,0.0,0.0,40,-99.99,,,-99.99,,2014-01-03 00:02:00,
2014-01-02 18:42:00,-13.0,-27.0,-100.00,SW,230,0.0,0.0,48,-99.99,,,-99.99,,2014-01-03 00:42:00,
2014-01-02 18:52:00,-13.0,-27.0,-100.00,SW,230,0.0,0.0,48,-99.99,,,-99.99,,2014-01-03 00:52:00,
2014-01-02 19:02:00,-13.0,-27.0,-100.00,SW,230,0.0,0.0,48,-99.99,,,-99.99,,2014-01-03 01:02:00,
2014-01-02 19:43:00,-17.0,-27.0,-100.00,South,180,0.0,0.0,58,-99.99,,,-99.99,,2014-01-03 01:43:00,
2014-01-02 19:52:00,-17.0,-27.0,-100.00,South,180,0.0,0.0,58,-99.99,,,-99.99,,2014-01-03 01:52:00,
2014-01-02 20:02:00,-17.0,-27.0,-100.00,South,180,0.0,0.0,58,-99.99,,,-99.99,,2014-01-03 02:02:00,
2014-01-02 20:42:00,-19.0,-28.0,-100.00,ENE,70,0.0,0.0,64,-99.99,,,-99.99,,2014-01-03 02:42:00,
2014-01-02 20:53:00,-19.0,-28.0,-100.00,ENE,70,0.0,0.0,64,-99.99,,,-99.99,,2014-01-03 02:53:00,
2014-01-02 21:02:00,-19.0,-28.0,-100.00,ENE,70,0.0,0.0,64,-99.99,,,-99.99,,2014-01-03 03:02:00,
2014-01-02 21:43:00,-21.0,-28.0,-100.00,South,185,0.0,0.0,68,-99.99,,,-99.99,,2014-01-03 03:43:00,
2014-01-02 21:54:00,-21.0,-28.0,-100.00,South,185,0.0,0.0,68,-99.99,,,-99.99,,2014-01-03 03:54:00,
2014-01-02 22:03:00,-21.0,-28.0,-100.00,South,185,0.0,0.0,68,-99.99,,,-99.99,,2014-01-03 04:03:00,
2014-01-02 23:43:00,-23.0,-29.0,-100.00,SE,145,0.0,0.0,73,-99.99,,,-99.99,,2014-01-03 05:43:00,
2014-01-02 23:53:00,-23.0,-29.0,-100.00,SE,145,0.0,0.0,73,-99.99,,,-99.99,,2014-01-03 05:53:00,